Flag for Italy Weather past 2 weeks in Bologna, Italy

Now
77 °F

Passing clouds.


Feels Like: 79 °F
Forecast: 65 / 80 °F
Wind: 3 mph from North

Location: Bologna / Borgo Panigale

Current Time: Jul 30, 2015 at 11:03:21 AM

Latest Report: Jul 30, 2015 at 10:20 AM


Visibility: N/A

Pressure: 29.80 "Hg

Humidity: 65%

Dew point: 64 °F

Location of BolognaLocation

Historic Weather in Bologna — Graph

°F

Bologna temperature yesterday

Maximum temperature yesterday: 95 °F (at 4:20 PM)
Minimum temperature yesterday: 68 °F (at 5:50 AM)
Average temperature yesterday: 84 °F

Past Weeks' High & Low Weather Summary

 TemperatureHumidityPressure
High100 °F (Jul 22, 4:20 PM)94% (Jul 16, 2:50 AM)30.04 "Hg (Jul 16, 2:50 AM)
Low66 °F (Jul 28, 5:20 AM)21% (Jul 28, 7:50 PM)29.59 "Hg (Jul 27, 4:50 PM)
Average84 °F51%29.83 "Hg
* Reported Jul 15 9:20 AM — Jul 30 9:50 AM, Bologna, Weather by CustomWeather, © 2015

Note: Actual official high and low records may vary slightly from our data, if they occured in-between our weather recording intervals... More about our weather records

Advertising

Bologna weather history for previous 24 hours

 ConditionsComfort  
Time TempWeatherWind HumidityBarometerVisibility
9:50 AM
Thu, Jul 30
75 °FPassing clouds.5 mph69%29.80 "HgN/A
9:20 AM75 °FPassing clouds.5 mph69%29.80 "HgN/A
8:50 AM75 °FPassing clouds.3 mph69%29.80 "HgN/A
8:20 AM73 °FSunny.2 mph74%29.80 "Hg10 mi
7:50 AM72 °FSunny.2 mph78%29.80 "Hg10 mi
7:20 AM70 °FPassing clouds.3 mph83%29.80 "HgN/A
6:50 AM68 °FClear.2 mph88%29.77 "Hg10 mi
6:20 AM68 °FClear.2 mph88%29.77 "Hg10 mi
5:50 AM68 °FClear.3 mph88%29.77 "Hg10 mi
5:20 AM68 °FClear.1 mph88%29.77 "Hg10 mi
4:50 AM70 °FClear.2 mph83%29.77 "Hg10 mi
4:20 AM70 °FClear.3 mph83%29.74 "Hg10 mi
3:50 AM70 °FClear.3 mph83%29.77 "Hg10 mi
3:20 AM70 °FPassing clouds.5 mph83%29.77 "HgN/A
2:50 AM70 °FClear.2 mph88%29.77 "Hg10 mi
2:20 AM72 °FPassing clouds.7 mph83%29.74 "HgN/A
1:50 AM72 °FClear.8 mph83%29.74 "Hg10 mi
1:20 AM75 °FPassing clouds.5 mph74%29.71 "HgN/A
12:50 AM75 °FClear.1 mph61%29.71 "Hg10 mi
12:20 AM75 °FClear.2 mph74%29.71 "Hg10 mi
11:50 PM
Wed, Jul 29
77 °FClear.3 mph69%29.71 "Hg10 mi
11:20 PM77 °FPassing clouds.3 mph69%29.71 "HgN/A
10:50 PM81 °FPassing clouds.7 mph48%29.71 "HgN/A
10:20 PM82 °FPassing clouds.6 mph42%29.68 "HgN/A
9:50 PM82 °FClear.12 mph42%29.68 "Hg10 mi
9:20 PM84 °FSunny.13 mph40%29.65 "Hg10 mi
8:50 PM86 °FPassing clouds.12 mph38%29.65 "HgN/A
8:20 PM88 °FPassing clouds.13 mph35%29.62 "HgN/A
7:50 PM90 °FPassing clouds.14 mph31%29.62 "HgN/A
7:20 PM91 °FPassing clouds.16 mph30%29.62 "HgN/A
6:50 PM95 °FPassing clouds.16 mph28%29.59 "HgN/A
6:20 PM95 °FPassing clouds.16 mph28%29.59 "HgN/A
5:50 PM93 °FPassing clouds.9 mph32%29.62 "HgN/A
5:20 PM95 °FPassing clouds.12 mph30%29.62 "HgN/A
4:50 PM93 °FPassing clouds.14 mph32%29.62 "HgN/A
4:20 PM95 °FPassing clouds.9 mph30%29.62 "HgN/A
3:50 PM93 °FPassing clouds.5 mph32%29.65 "HgN/A
3:20 PM93 °FPassing clouds.2 mph34%29.65 "HgN/A
2:50 PM91 °FPassing clouds.8 mph36%29.65 "HgN/A
2:20 PM93 °FPassing clouds.3 mph34%29.68 "HgN/A
1:50 PM90 °FSunny.3 mph38%29.68 "Hg10 mi
1:20 PM90 °FSunny.5 mph38%29.68 "Hg10 mi
12:50 PM90 °FSunny.3 mph38%29.68 "Hg10 mi
12:20 PM88 °FSunny.5 mph38%29.71 "Hg10 mi
11:50 AM88 °FPassing clouds.5 mph38%29.71 "HgN/A
11:20 AM88 °FSunny.3 mph38%29.71 "Hg10 mi
Weather by CustomWeather, © 2015

See weather overviewHow to use our weather pages